Regional Weather Roundup
Issued by NWS

Home | Current Version | Previous Version | Graphics & Text | Print | Product List | Glossary On
Versions: 1 2 3 4 5 6 7 8 9 10 11 12 13 14 15 16 17 18 19 20 21 22 23 24 25 26 27 28 29 30 31 32 33 34 35 36 37 38 39 40 41 42 43 44 45 46 47 48 49 50
000
ASUS45 KTFX 270104
RWRMT
MONTANA HOURLY WEATHER ROUNDUP
NATIONAL WEATHER SERVICE GREAT FALLS MT
604 PM MST MON JAN 26 2015

NOTE: "FAIR" INDICATES FEW OR NO CLOUDS BELOW 12000 FEET WITH NO
SIGNIFICANT WEATHER AND/OR OBSTRUCTIONS TO VISIBILITY.

* THESE STATIONS ARE NOT UNDER NWS QUALITY CONTROL. THEY DO NOT
   REPORT WEATHER SUCH AS PRECIPITATION OR FOG.

MTZ001>007-043-270200-
WEST OF THE DIVIDE
CITY           SKY/WX    TMP DP  RH WIND       PRES   REMARKS
KALISPELL      PTCLDY    34  28  79 CALM      30.00R
MISSOULA       PTCLDY    36  28  73 N6        30.06F WCI  31
BUTTE          PTCLDY    37  28  70 SE3       30.12S
MULLAN PASS    CLOUDY    46  27  48 W13G20    30.08F
* ANACONDA     PTCLDY    52  27  38 S6         N/A
* LINCOLN      N/A       49  29  46 S5         N/A
* LOOKOUT PASS N/A       50  29  44 E2         N/A
* POLSON       N/A       46  32  58 SE3        N/A
* RONAN APT    PTCLDY    39  39 100 N/A        N/A
* SEELEY LAKE  N/A       42  28  58 N2         N/A
* THOMP F APT  PTCLDY    39  29  67 N1G6       N/A
$$

MTZ008-052>055-270200-
SOUTHWEST MONTANA
CITY           SKY/WX    TMP DP  RH WIND       PRES   REMARKS
BOZEMAN        PTCLDY    43  30  60 CALM      30.08F
DILLON         PTCLDY    43  30  60 SW15      30.12S
* W YELLOWSTON MOCLDY    30  28  92 N/A        N/A
* THREE FORKS  PTCLDY    45  37  74 N/A        N/A
* BOULDER HILL N/A       46  25  44 SW4        N/A
* MONIDA PASS  N/A       35  32  89 E9G14      N/A   WCI  28
* RAYNOLDS PAS N/A       34  17  50 SE20       N/A   WCI  23
* WHITEHALL    N/A       55  28  35 SW10G18    N/A
* WISE RIVER   N/A       45  27  49 SW3G8      N/A
$$

MTZ009>010-012-014-046-048-049-054-270200-
EAST SLOPES AND CENTRAL MONTANA
CITY           SKY/WX    TMP DP  RH WIND       PRES   REMARKS
CUT BANK       PTCLDY    52  28  40 W18       29.88F
GREAT FALLS    PTCLDY    54  30  40 SW22      29.90F
HELENA         PTCLDY    45  34  65 SW3       30.02F
MALMSTROM AFB  PTCLDY    54  32  43 SW14      29.93R
* DEARBORN     N/A       57  30  36 S8         N/A
* EAST GLACIER N/A       53  26  35 W14G20     N/A
* MONARCH      N/A       55  18  23 SW9G14     N/A
* PENDROY      N/A       48  22  36 W7         N/A
* ROGERS PASS  N/A       54  22  29 E10G20     N/A
* SWEET GRASS  N/A       55  29  37 SW17G22    N/A
$$

MTZ011-013-016-021-035-040-045-047-050-051-270200-
NORTH CENTRAL MONTANA
CITY           SKY/WX    TMP DP  RH WIND       PRES   REMARKS
HAVRE          MOCLDY    45  34  65 W3        29.84S
LEWISTOWN      PTCLDY    50  28  43 SW22      29.97S
* N BAR RANCH  CLEAR     50  28  43 W6G13     29.99S
* CHESTER      N/A       49  34  56 NE2        N/A
* DENTON       N/A       51  28  41 SW14       N/A
* GEYSER       N/A       53  22  30 SW15       N/A
* JUDITH GAP   N/A       49  25  39 SW6        N/A
* LOMA         N/A       49  39  69 NE6        N/A
$$

MTZ017>020-022>027-061-062-270200-
NORTHEAST MONTANA
CITY           SKY/WX    TMP DP  RH WIND       PRES   REMARKS
GLASGOW        PTCLDY    46  36  68 CALM      29.87F
GLENDIVE       PTCLDY    43  34  71 SW9       29.92S
JORDAN         PTCLDY    36  30  79 CALM      29.90S
SIDNEY         MOCLDY    39  32  76 CALM      29.92F
WOLF POINT     MOCLDY    37  34  89 CALM      29.89F
* BEAVER HILL  N/A       45  35  68 S12        N/A
* CIRCLE       N/A       47  36  66 N/A        N/A
* LINDSAY DVD  N/A       48  32  54 W6         N/A
* NAVAJO       N/A       38  34  86 SW5        N/A   WCI  34
* SACO         N/A       42  35  76 S10        N/A
$$

MTZ028>042-056>058-270200-
SOUTHCENTRAL AND SOUTHEAST MONTANA
CITY           SKY/WX    TMP DP  RH WIND       PRES   REMARKS
BAKER          CLEAR     43  34  71 CALM      29.94F
BILLINGS       CLEAR     54  27  35 SW24G30   30.00F
LIVINGSTON     CLEAR     55  27  34 W17G28    30.05R
MILES CITY     MOCLDY    45  34  65 CALM      29.93S
* LAUREL APT   CLEAR     54  27  35 SW14G23    N/A
* ROUNDUP APT  PTCLDY    61  28  29 SW11G17    N/A
* ALZADA       N/A       50  32  50 NW2        N/A
* HYSHAM       N/A       52  25  35 SW2        N/A
* LAME DEER    N/A       57  27  32 W9G14      N/A
* REED POINT   N/A       50  33  52 N/A        N/A
* ROSCOE HILL  N/A       61  14  16 SW10G21    N/A
$$

REGIONAL REPORTS...DAKOTAS
CITY           SKY/WX    TMP DP  RH WIND       PRES   REMARKS
WILLISTON      PTCLDY    36  28  73 S3        29.90F
DICKINSON      PTCLDY    41  32  70 S6        29.91F
CROSBY         CLEAR     34  34 100 S9        29.91F WCI  27
WATFORD CITY   CLEAR     36  30  79 CALM      29.90F
BISMARCK       MOCLDY    36  30  79 E5        29.98R WCI  32
GRAND FORKS    MOCLDY    28  25  89 CALM      29.98R
FARGO          MOCLDY    30  27  89 N7        29.99R WCI  23
BUFFALO SD     CLEAR     50  32  50 S7        29.90S
RAPID CITY     CLEAR     52  28  40 SW3       30.00S
$$

REGIONAL REPORTS...WYOMING/IDAHO/WASHINGTON
CITY           SKY/WX    TMP DP  RH WIND       PRES   REMARKS
GILLETTE       PTCLDY    52  30  43 SW18      30.05F
SHERIDAN       CLEAR     48  30  50 CALM      30.03S
CODY           CLEAR     39  30  70 S7        30.13F WCI  34
YELLOWSTONE LA PTCLDY    25  21  85 CALM      30.34F
SALMON         CLOUDY   N/A N/A N/A N3        30.23S VSB M1/4
MULLAN PASS    CLOUDY    46  27  48 W13G20    30.08S
SAND POINT     FOG       34  34 100 CALM      30.04S VSB M1/4
SPOKANE        MOCLDY    43  39  86 CALM      30.01S
$$

REGIONAL REPORTS...SASKATCHEWAN
CITY           SKY/WX    TMP DP  RH WIND       PRES   REMARKS
SWIFT CURRENT  SQUALL    39  32  76 SW14      29.81F WCI  31

$$



USA.gov is the U.S. government's official web portal to all federal, state and local government web resources and services.